Location: Cerro
(37.9916°N, 122.5314°W)
Time: 23:56:53
(UTC+00:00)

Daily predictions for brighter satellites

Satellite Brightness Start Highest point End
(mag) Time Altitude Azimuth Time Altitude Azimuth Time Altitude Azimuth
CZ-4C R/B 3.7 12:06:01 46° NNW 12:06:01 46° NNW 12:08:38 10° NNW
Helios 1B 4.4 12:08:21 58° SW 12:08:49 63° WSW 12:13:08 10° NNW
BREEZE-M DEB (TANK) 4.5 12:07:01 35° WSW 12:10:32 80° NNW 12:38:05 10° ENE
Cosmos 1777 Rocket 4.0 12:05:55 10° NNW 12:11:00 52° WSW 12:16:01 10° S
Cosmos 2278 4.1 12:10:41 40° W 12:11:41 43° WNW 12:17:07 10° N
Meteor 1-4 Rocket 3.4 12:10:04 21° SSE 12:12:04 46° E 12:15:25 10° NNE
ADEOS II 4.3 12:10:47 10° NW 12:11:02 10° NW 12:11:02 10° NW
NOSS 3-3 (A) 3.7 12:15:21 33° SW 12:18:01 77° NW 12:24:20 10° NNE
NOSS 3-3 (C) 3.7 12:15:31 33° SW 12:18:08 77° WNW 12:24:25 10° NNE
IRIDIUM 114 4.5 12:14:06 10° N 12:19:20 76° E 12:24:32 10° S
Lacrosse 5 3.2 12:19:12 22° NW 12:20:22 24° NNW 12:24:30 10° NNE
Cosmos 1727 Rocket 4.2 12:15:01 10° S 12:21:20 75° E 12:27:40 10° N
ADEOS 4.2 12:18:09 10° NNE 12:23:17 56° E 12:28:24 10° S
Cosmos 1238 Rocket 4.0 12:18:30 10° NNW 12:24:55 55° W 12:30:46 10° SSW
ERS-2 2.0 12:22:09 10° SSE 12:25:47 87° E 12:29:28 10° NNW
Cosmos 389 Rocket 4.3 12:27:24 18° NW 12:27:24 18° NW 12:28:48 10° NNW
IDEFIX/ARIANE 42P 3.7 12:22:59 10° NNW 12:27:05 24° WNW 12:27:17 23° WNW
IRIDIUM 103 4.3 12:23:13 10° N 12:28:28 88° W 12:33:40 10° S
Landsat 5 3.9 12:28:31 10° S 12:32:49 44° W 12:37:08 10° NNW
Cosmos 1812 2.9 12:36:03 28° SW 12:37:40 47° W 12:41:24 10° N
ARIANE 5 R/B 4.4 12:37:16 10° NW 12:39:13 13° WNW 12:39:13 13° WNW
Cosmos 44 4.0 12:38:47 25° W 12:40:05 30° NW 12:44:09 10° N
SL-4 R/B 3.0 12:36:43 16° SSW 12:40:09 51° SE 12:44:46 10° ENE
X-37B 2.6 12:38:41 15° NW 12:40:20 22° N 12:42:55 10° ENE
IRIDIUM 106 4.3 12:41:38 10° N 12:46:45 58° W 12:51:51 10° SSW
FALCON 9 DEB 3.8 12:44:56 17° SSW 12:47:20 50° SE 12:50:40 10° ENE
deb Chang Zheng 4 3.4 12:43:51 10° N 12:48:09 81° WNW 12:52:25 10° SSW
Cosmos 1500 3.6 12:46:18 10° NNW 12:49:52 37° W 12:53:24 10° SSW
Cosmos 1707 Rocket 3.4 12:48:43 10° SSW 12:53:00 70° W 12:57:20 10° N
Cosmos 2360 Rocket 3.4 12:47:50 10° S 12:53:11 45° ESE 12:58:32 10° NE
Cosmos 841 Rocket 4.3 12:48:14 10° S 12:53:17 55° ESE 12:58:25 10° NNE
USA 234 3.5 12:47:06 10° SSE 12:53:18 46° SW 12:59:31 10° WNW
Cosmos 2228 Rocket 4.3 12:53:21 19° WSW 12:54:45 23° WNW 12:58:15 10° NNW
Cosmos 1666 2.6 12:52:07 10° N 12:55:56 81° W 12:59:43 10° S
ADEOS Rocket 3.2 12:49:18 10° S 12:56:24 69° WSW 13:02:48 10° NNW
Cosmos 921 Rocket 4.0 12:56:13 19° WSW 12:58:08 26° WNW 13:01:39 10° N
CZ-4B R/B 4.1 12:56:51 10° NNE 13:01:12 88° ESE 13:05:38 10° SSW
CZ-4B R/B 3.8 12:57:54 10° NNE 13:01:26 45° E 13:04:53 10° S
ALOS 2.2 12:58:23 10° N 13:03:05 80° WNW 13:07:43 10° SSW
Cosmos 1980 Rocket 3.7 13:00:54 14° W 13:03:34 19° NW 13:07:31 10° N
Cosmos 1763 Rocket 3.6 12:59:17 10° SSW 13:04:30 58° WNW 13:09:45 10° N
Cosmos 2322 Rocket 2.2 13:02:22 10° SSW 13:08:00 71° WNW 13:13:43 10° NNE
METEOR-M 4.1 13:06:54 10° N 13:12:17 82° WNW 13:17:37 10° SSW
FENGYUN 3A 3.7 13:07:57 10° N 13:13:18 67° WNW 13:18:38 10° SSW
CZ-4B R/B 1.8 13:11:02 10° SSW 13:13:55 35° W 13:16:51 10° NNW
SL-16 R/B 2.5 13:09:49 10° SW 13:15:18 49° WNW 13:20:48 10° NNE
ERBS 3.6 13:13:26 13° W 13:15:50 25° NW 13:18:42 10° NNE
Cosmos 1733 Rocket 3.0 13:12:08 10° N 13:16:30 89° ENE 13:20:49 10° S
Cosmos 2263 Rocket 2.3 13:11:10 10° NNW 13:16:39 52° WSW 13:22:07 10° S
Okean 1 4.5 13:14:03 10° SSE 13:17:57 49° E 13:21:52 10° NNE
Cosmos 2173 Rocket 4.0 13:13:50 10° N 13:20:10 78° W 13:26:31 10° S
Cosmos 1844 Rocket 4.5 13:18:40 10° N 13:23:51 36° ENE 13:29:01 10° SE
CZ-2C R/B 3.8 13:20:58 10° NNW 13:24:42 21° WNW 13:28:27 10° WSW
SAR-Lupe-4 4.1 13:21:57 10° SSW 13:25:16 36° W 13:28:37 10° NNW
Cosmos 1743 3.4 13:22:37 10° N 13:26:23 58° E 13:30:07 10° SSE
Cosmos 2061 Rocket 4.3 13:20:10 10° N 13:26:38 79° E 13:33:03 10° S
Cosmos 1862 Rocket 3.6 13:22:21 10° SSW 13:26:42 62° W 13:31:03 10° N
Cosmos 990 Rocket 4.2 13:25:07 10° NNW 13:30:06 48° WSW 13:35:05 10° S
